Douglas, WY

10:08 AM MDT on July 26, 2017 (GMT -0600)
Converse County

Weather History for KDGW - June, 2013

Change the Weather History Date:

Saturday, June 22, 2013

  Actual Average Record
Temperature  
Mean Temperature 65 °F 66 °F  
Max Temperature 79 °F 82 °F 100 °F (2012)
Min Temperature 50 °F 50 °F 39 °F (2004)
Growing Degree Days 13 (Base 50)    
Moisture  
Dew Point 51 °F    
Average Humidity 72    
Maximum Humidity 100    
Minimum Humidity 43    
Precipitation  
Precipitation 0.04 in 0.05 in 0.37 in (1967)
Month to date precipitation 0.51 1.41  
Year to date precipitation 5.13 7.05  
Sea Level Pressure  
Sea Level Pressure 29.86 in    
Wind  
Wind Speed 11 mph (NE)    
Max Wind Speed 29 mph    
Max Gust Speed 35 mph    
Visibility 10 miles    
Events Thunderstorm    
T = Trace of Precipitation, MM = Missing Value Source: NWS Daily Summary

Daily Weather History Graph

Daily Weather History Graph

Search for Another Location

Airport or City:

Trip Planner

Search our weather history database for the weather conditions in past years. The results will help you decide how hot, cold, wet, or windy it might be!

Date:

Astronomy

Jun. 22, 2013 Rise Set
Actual Time 5:23 AM MDT 8:43 PM MDT
Civil Twilight 4:48 AM MDT 9:18 PM MDT
Nautical Twilight 4:02 AM MDT 10:04 PM MDT
Astronomical Twilight 3:06 AM MDT 11:01 PM MDT
Moon 7:59 PM MDT (6/22) 4:40 AM MDT (6/22)
Length of Visible Light 16h 30m
Length of Day
15h 20m
Waxing Gibbous, 99% of the Moon is Illuminated
Jun 22
Waxing Gibbous
Jun 23
Full
Jun 29
Last Quarter
Jul 8
New
Jul 15
First Quarter

Hourly Weather History & Observations

Time (MDT) Temp. Dew Point Humidity Pressure Visibility Wind Dir Wind Speed Gust Speed Precip Events Conditions
12:53 AM 55.0 °F 53.1 °F 93% 29.88 in 10.0 mi North 4.6 mph - N/A   Clear
1:53 AM 54.0 °F 53.1 °F 97% 29.87 in 8.0 mi West 6.9 mph - N/A   Clear
2:53 AM 54.0 °F 53.1 °F 97% 29.87 in 10.0 mi NW 4.6 mph - N/A   Clear
3:53 AM 53.1 °F 51.1 °F 93% 29.85 in 9.0 mi West 3.5 mph - 0.01 in   Clear
4:53 AM 52.0 °F 50.0 °F 93% 29.85 in 10.0 mi NW 4.6 mph - N/A   Clear
5:53 AM 52.0 °F 50.0 °F 93% 29.87 in 2.0 mi Calm Calm - N/A   Clear
6:01 AM 51.8 °F 50.0 °F 94% 30.02 in 5.0 mi Calm Calm - N/A   Clear
6:53 AM 55.9 °F 54.0 °F 93% 29.86 in 9.0 mi Calm Calm - N/A   Clear
7:53 AM 60.1 °F 55.0 °F 83% 29.88 in 10.0 mi ESE 3.5 mph - N/A   Clear
8:53 AM 61.0 °F 55.0 °F 81% 29.90 in 10.0 mi SE 6.9 mph - N/A   Scattered Clouds
9:04 AM 60.8 °F 55.4 °F 82% 30.01 in 10.0 mi SE 8.1 mph - N/A   Mostly Cloudy
9:34 AM 64.4 °F 53.6 °F 68% 30.00 in 10.0 mi SSE 12.7 mph - N/A   Partly Cloudy
9:53 AM 66.0 °F 53.1 °F 63% 29.87 in 10.0 mi SE 10.4 mph - N/A   Clear
10:53 AM 68.0 °F 51.1 °F 55% 29.85 in 10.0 mi SSE 12.7 mph - N/A   Partly Cloudy
11:53 AM 73.0 °F 51.1 °F 46% 29.81 in 10.0 mi ESE 13.8 mph 20.7 mph N/A   Clear
12:53 PM 75.9 °F 51.1 °F 42% 29.74 in 10.0 mi SE 20.7 mph 25.3 mph N/A   Clear
1:53 PM 73.0 °F 52.0 °F 48% 29.71 in 10.0 mi SE 24.2 mph 34.5 mph N/A   Partly Cloudy
2:15 PM 71.6 °F 53.6 °F 53% 29.86 in 10.0 mi SE 12.7 mph 24.2 mph N/A Thunderstorm Mostly Cloudy
2:26 PM 71.6 °F 53.6 °F 53% 29.84 in 10.0 mi SE 6.9 mph - N/A Thunderstorm Mostly Cloudy
2:53 PM 71.1 °F 54.0 °F 55% 29.72 in 10.0 mi South 12.7 mph 19.6 mph 0.00 in   Overcast
3:04 PM 73.4 °F 53.6 °F 50% 29.88 in 10.0 mi SSW 9.2 mph 21.9 mph N/A Thunderstorm Thunderstorm
3:24 PM 66.2 °F 48.2 °F 52% 29.90 in 10.0 mi North 24.2 mph 34.5 mph 0.01 in   Mostly Cloudy
3:51 PM 62.6 °F 48.2 °F 59% 29.93 in 10.0 mi NNW 20.7 mph 27.6 mph 0.01 in Thunderstorm Thunderstorm
3:53 PM 62.1 °F 48.0 °F 60% 29.82 in 10.0 mi North 24.2 mph 31.1 mph 0.01 in Thunderstorm Thunderstorm
4:37 PM 69.8 °F 48.2 °F 46% 29.89 in 10.0 mi NNW 20.7 mph 29.9 mph 0.02 in   Partly Cloudy
4:53 PM 66.9 °F 46.9 °F 49% 29.78 in 10.0 mi NNE 17.3 mph 24.2 mph 0.02 in   Clear
5:53 PM 64.0 °F 48.0 °F 56% 29.80 in 10.0 mi NE 16.1 mph - N/A   Clear
6:53 PM 66.0 °F 46.0 °F 48% 29.77 in 10.0 mi NNE 11.5 mph - N/A   Clear
7:53 PM 62.1 °F 46.9 °F 58% 29.79 in 10.0 mi ENE 13.8 mph - N/A   Clear
8:53 PM 59.0 °F 48.0 °F 67% 29.86 in 10.0 mi North 8.1 mph - N/A   Clear
9:53 PM 54.0 °F 48.0 °F 80% 29.91 in 10.0 mi NNW 11.5 mph - N/A   Clear
10:53 PM 52.0 °F 46.0 °F 80% 29.90 in 10.0 mi NW 6.9 mph - N/A   Clear
11:53 PM 53.1 °F 46.9 °F 80% 29.89 in 10.0 mi NW 13.8 mph - N/A   Clear